Time,TemperatureF,DewpointF,PressureIn,WindDirection,WindDirectionDegrees,WindSpeedMPH,WindSpeedGustMPH,Humidity,HourlyPrecipIn,Conditions,Clouds,dailyrainin,SolarRadiationWatts/m^2,SoftwareType,DateUTC
2013-09-10 00:01:00,64.8,59.5,30.16,SSE,162,2.2,3.5,83,0.00,CLR,,0.00,0.0,WeatherDisplay:10.37,2013-09-10 04:01:00,
2013-09-10 00:02:00,64.8,59.5,30.16,SSE,162,0.8,5.8,83,0.00,CLR,,0.00,0.0,WeatherDisplay:10.37,2013-09-10 04:02:00,
2013-09-10 00:07:00,64.9,59.6,30.16,SSE,161,0.7,2.3,83,0.00,CLR,,0.00,0.0,WeatherDisplay:10.37,2013-09-10 04:07:00,
2013-09-10 00:12:00,65.0,59.7,30.16,SSE,161,1.2,2.3,83,0.00,CLR,,0.00,0.0,WeatherDisplay:10.37,2013-09-10 04:12:00,
2013-09-10 00:17:00,65.1,59.8,30.16,SE,138,0.2,3.5,83,0.00,CLR,,0.00,0.0,WeatherDisplay:10.37,2013-09-10 04:17:00,
2013-09-10 00:22:00,65.2,59.9,30.16,SE,142,0.3,1.2,83,0.00,CLR,,0.00,0.0,WeatherDisplay:10.37,2013-09-10 04:22:00,
2013-09-10 00:27:00,65.3,60.0,30.16,SE,145,0.1,1.2,83,0.00,CLR,,0.00,0.0,WeatherDisplay:10.37,2013-09-10 04:27:00,
2013-09-10 00:33:00,65.4,60.1,30.16,SE,146,1.6,2.3,83,0.00,CLR,,0.00,0.0,WeatherDisplay:10.37,2013-09-10 04:33:00,
2013-09-10 00:38:00,65.4,60.1,30.16,SE,139,1.5,2.3,83,0.00,CLR,,0.00,0.0,WeatherDisplay:10.37,2013-09-10 04:38:00,
2013-09-10 00:43:00,65.5,60.2,30.15,SSE,150,0.3,2.0,83,0.00,CLR,,0.00,0.0,WeatherDisplay:10.37,2013-09-10 04:43:00,
2013-09-10 00:48:00,65.5,60.2,30.15,SSE,148,1.0,3.5,83,0.00,CLR,,0.00,0.0,WeatherDisplay:10.37,2013-09-10 04:48:00,
2013-09-10 00:53:00,65.6,60.3,30.15,SE,135,1.0,2.3,83,0.00,CLR,,0.00,0.0,WeatherDisplay:10.37,2013-09-10 04:53:00,
2013-09-10 00:58:00,65.6,60.3,30.15,SE,135,0.1,1.2,83,0.00,CLR,,0.00,0.0,WeatherDisplay:10.37,2013-09-10 04:58:00,
2013-09-10 01:03:00,65.6,60.3,30.15,SSE,155,0.3,2.3,83,0.00,CLR,,0.00,0.0,WeatherDisplay:10.37,2013-09-10 05:03:00,
2013-09-10 01:08:00,65.6,60.3,30.15,SSE,150,0.0,0.0,83,0.00,CLR,,0.00,0.0,WeatherDisplay:10.37,2013-09-10 05:08:00,
2013-09-10 01:13:00,65.7,60.4,30.15,SSE,150,0.9,2.0,83,0.00,CLR,,0.00,0.0,WeatherDisplay:10.37,2013-09-10 05:13:00,
2013-09-10 01:18:00,65.7,60.7,30.15,SSE,150,0.3,2.3,84,0.00,CLR,,0.00,0.0,WeatherDisplay:10.37,2013-09-10 05:18:00,
2013-09-10 01:24:00,65.8,60.8,30.15,SSE,150,1.4,2.0,84,0.00,CLR,,0.00,0.0,WeatherDisplay:10.37,2013-09-10 05:24:00,
2013-09-10 01:29:00,65.9,60.9,30.15,SW,215,0.2,3.5,84,0.00,CLR,,0.00,0.0,WeatherDisplay:10.37,2013-09-10 05:29:00,
2013-09-10 01:34:00,65.9,60.9,30.15,SW,215,0.9,2.3,84,0.00,CLR,,0.00,0.0,WeatherDisplay:10.37,2013-09-10 05:34:00,
2013-09-10 01:39:00,66.0,61.0,30.15,SSW,212,0.0,1.2,84,0.00,CLR,,0.00,0.0,WeatherDisplay:10.37,2013-09-10 05:39:00,
2013-09-10 01:44:00,66.1,61.1,30.15,SSW,212,0.0,0.0,84,0.00,CLR,,0.00,0.0,WeatherDisplay:10.37,2013-09-10 05:44:00,
2013-09-10 01:49:00,66.2,61.2,30.15,SSW,209,1.0,3.5,84,0.00,CLR,,0.00,0.0,WeatherDisplay:10.37,2013-09-10 05:49:00,
2013-09-10 01:54:00,66.3,61.3,30.15,SW,234,1.3,2.0,84,0.00,CLR,,0.00,0.0,WeatherDisplay:10.37,2013-09-10 05:54:00,
2013-09-10 01:59:00,66.4,61.4,30.15,SW,224,0.1,2.3,84,0.00,CLR,,0.00,0.0,WeatherDisplay:10.37,2013-09-10 05:59:00,
2013-09-10 02:04:00,66.5,61.5,30.15,WSW,245,1.2,3.5,84,0.00,CLR,,0.00,0.0,WeatherDisplay:10.37,2013-09-10 06:04:00,
2013-09-10 02:09:00,66.6,61.6,30.15,SSW,198,0.9,3.5,84,0.00,CLR,,0.00,0.0,WeatherDisplay:10.37,2013-09-10 06:09:00,
2013-09-10 02:15:00,66.8,61.8,30.15,WSW,248,1.0,2.3,84,0.00,CLR,,0.00,0.0,WeatherDisplay:10.37,2013-09-10 06:15:00,
2013-09-10 02:20:00,66.9,61.6,30.15,SSE,161,0.1,1.2,83,0.00,CLR,,0.00,0.0,WeatherDisplay:10.37,2013-09-10 06:20:00,
2013-09-10 02:25:00,67.0,62.0,30.15,WSW,244,0.3,4.0,84,0.00,CLR,,0.00,0.0,WeatherDisplay:10.37,2013-09-10 06:25:00,
2013-09-10 02:30:00,67.1,61.8,30.15,SSW,211,0.2,1.2,83,0.00,CLR,,0.00,0.0,WeatherDisplay:10.37,2013-09-10 06:30:00,
2013-09-10 02:35:00,67.2,61.9,30.15,SE,142,1.3,3.5,83,0.00,CLR,,0.00,0.0,WeatherDisplay:10.37,2013-09-10 06:35:00,
2013-09-10 02:40:00,67.4,62.1,30.14,SE,146,1.6,3.5,83,0.00,CLR,,0.00,0.0,WeatherDisplay:10.37,2013-09-10 06:40:00,
2013-09-10 02:45:00,67.5,62.2,30.14,SE,144,1.2,2.3,83,0.00,CLR,,0.00,0.0,WeatherDisplay:10.37,2013-09-10 06:45:00,
2013-09-10 02:50:00,67.6,62.3,30.14,SE,143,1.5,3.5,83,0.00,CLR,,0.00,0.0,WeatherDisplay:10.37,2013-09-10 06:50:00,
2013-09-10 02:55:00,67.7,62.3,30.14,SE,144,2.4,4.6,83,0.00,CLR,,0.00,0.0,WeatherDisplay:10.37,2013-09-10 06:55:00,
2013-09-10 03:00:00,67.8,62.1,30.14,SSE,153,2.2,3.5,82,0.00,CLR,,0.00,0.0,WeatherDisplay:10.37,2013-09-10 07:00:00,
2013-09-10 03:06:00,67.9,62.2,30.14,SSW,199,3.2,8.1,82,0.00,CLR,,0.00,0.0,WeatherDisplay:10.37,2013-09-10 07:06:00,
2013-09-10 03:11:00,68.0,62.3,30.14,SE,142,2.6,11.5,82,0.00,CLR,,0.00,0.0,WeatherDisplay:10.37,2013-09-10 07:11:00,
2013-09-10 03:16:00,68.1,62.4,30.14,SW,221,1.1,3.5,82,0.00,CLR,,0.00,0.0,WeatherDisplay:10.37,2013-09-10 07:16:00,
2013-09-10 03:21:00,68.2,62.5,30.14,SW,221,2.1,3.5,82,0.00,CLR,,0.00,0.0,WeatherDisplay:10.37,2013-09-10 07:21:00,
2013-09-10 03:26:00,68.3,62.6,30.13,SSE,157,1.6,3.5,82,0.00,CLR,,0.00,0.0,WeatherDisplay:10.37,2013-09-10 07:26:00,
2013-09-10 03:31:00,68.3,62.6,30.13,SSE,166,2.3,5.8,82,0.00,CLR,,0.00,0.0,WeatherDisplay:10.37,2013-09-10 07:31:00,
2013-09-10 03:36:00,68.4,62.7,30.13,SE,136,0.7,3.5,82,0.00,CLR,,0.00,0.0,WeatherDisplay:10.37,2013-09-10 07:36:00,
2013-09-10 03:41:00,68.4,62.7,30.13,SSE,148,0.6,3.5,82,0.00,CLR,,0.00,0.0,WeatherDisplay:10.37,2013-09-10 07:41:00,
2013-09-10 03:46:00,68.5,62.8,30.13,SW,217,1.3,3.5,82,0.00,CLR,,0.00,0.0,WeatherDisplay:10.37,2013-09-10 07:46:00,
2013-09-10 03:51:00,68.5,62.8,30.13,SSW,206,1.0,3.5,82,0.00,CLR,,0.00,0.0,WeatherDisplay:10.37,2013-09-10 07:51:00,
2013-09-10 03:57:00,68.6,62.9,30.13,South,186,1.8,3.5,82,0.00,CLR,,0.00,0.0,WeatherDisplay:10.37,2013-09-10 07:57:00,
2013-09-10 04:02:00,68.6,62.9,30.13,SSW,202,0.7,3.5,82,0.00,CLR,,0.00,0.0,WeatherDisplay:10.37,2013-09-10 08:02:00,
2013-09-10 04:07:00,68.6,62.9,30.13,SSW,192,1.9,4.6,82,0.00,CLR,,0.00,0.0,WeatherDisplay:10.37,2013-09-10 08:07:00,
2013-09-10 04:12:00,68.7,62.6,30.12,SSW,196,0.2,2.3,81,0.00,CLR,,0.00,0.0,WeatherDisplay:10.37,2013-09-10 08:12:00,
2013-09-10 04:17:00,68.7,62.6,30.13,SSW,211,1.6,3.5,81,0.00,CLR,,0.00,0.0,WeatherDisplay:10.37,2013-09-10 08:17:00,
2013-09-10 04:22:00,68.7,62.6,30.13,SSW,209,1.4,3.5,81,0.00,CLR,,0.00,0.0,WeatherDisplay:10.37,2013-09-10 08:22:00,
2013-09-10 04:27:00,68.8,63.1,30.13,SW,221,2.4,6.9,82,0.00,CLR,,0.00,0.0,WeatherDisplay:10.37,2013-09-10 08:27:00,
2013-09-10 04:32:00,68.8,63.1,30.13,SSW,194,1.0,3.5,82,0.00,CLR,,0.00,0.0,WeatherDisplay:10.37,2013-09-10 08:32:00,
2013-09-10 04:37:00,68.8,63.1,30.13,SSW,206,1.3,3.5,82,0.00,CLR,,0.00,0.0,WeatherDisplay:10.37,2013-09-10 08:37:00,
2013-09-10 04:42:00,68.8,63.1,30.13,SSW,196,0.9,2.3,82,0.00,CLR,,0.00,0.0,WeatherDisplay:10.37,2013-09-10 08:42:00,
2013-09-10 04:48:00,68.9,63.2,30.13,SW,219,2.3,3.0,82,0.00,CLR,,0.00,0.0,WeatherDisplay:10.37,2013-09-10 08:48:00,
2013-09-10 04:53:00,68.9,63.2,30.13,WSW,248,0.9,3.0,82,0.00,CLR,,0.00,0.0,WeatherDisplay:10.37,2013-09-10 08:53:00,
2013-09-10 04:58:00,68.9,63.2,30.13,SSW,192,1.8,3.5,82,0.00,CLR,,0.00,0.0,WeatherDisplay:10.37,2013-09-10 08:58:00,
2013-09-10 05:03:00,69.0,63.3,30.13,SW,219,1.1,4.0,82,0.00,CLR,,0.00,0.0,WeatherDisplay:10.37,2013-09-10 09:03:00,
2013-09-10 05:08:00,69.0,63.3,30.13,South,185,1.4,3.5,82,0.00,CLR,,0.00,0.0,WeatherDisplay:10.37,2013-09-10 09:08:00,
2013-09-10 05:13:00,69.0,63.3,30.13,SW,222,1.2,4.6,82,0.00,CLR,,0.00,0.0,WeatherDisplay:10.37,2013-09-10 09:13:00,
2013-09-10 05:18:00,69.1,63.4,30.13,SE,128,2.0,3.5,82,0.00,CLR,,0.00,0.0,WeatherDisplay:10.37,2013-09-10 09:18:00,
2013-09-10 05:23:00,69.1,63.7,30.13,WSW,244,0.9,5.0,83,0.00,CLR,,0.00,0.0,WeatherDisplay:10.37,2013-09-10 09:23:00,
2013-09-10 05:28:00,69.1,64.1,30.13,SSW,193,1.9,4.6,84,0.00,CLR,,0.00,0.0,WeatherDisplay:10.37,2013-09-10 09:28:00,
2013-09-10 05:33:00,69.0,64.3,30.13,SE,133,2.3,4.0,85,0.01,RA,,0.01,0.0,WeatherDisplay:10.37,2013-09-10 09:33:00,
2013-09-10 05:39:00,68.9,64.5,30.13,South,170,2.5,3.5,86,0.02,RA,,0.02,0.0,WeatherDisplay:10.37,2013-09-10 09:39:00,
2013-09-10 05:44:00,68.7,64.7,30.13,SSW,197,1.4,1.4,87,0.02,RA,,0.02,0.0,WeatherDisplay:10.37,2013-09-10 09:44:00,
2013-09-10 05:49:00,68.5,64.5,30.14,SSW,211,2.1,4.6,87,0.02,CLR,,0.02,0.0,WeatherDisplay:10.37,2013-09-10 09:49:00,
2013-09-10 05:54:00,68.3,64.6,30.13,South,170,0.4,3.5,88,0.02,CLR,,0.02,0.0,WeatherDisplay:10.37,2013-09-10 09:54:00,
2013-09-10 05:59:00,68.1,64.4,30.13,SSE,161,2.1,3.5,88,0.02,CLR,,0.02,0.0,WeatherDisplay:10.37,2013-09-10 09:59:00,
2013-09-10 06:04:00,68.0,64.6,30.14,WSW,240,1.9,2.3,89,0.02,OVC,,0.02,0.0,WeatherDisplay:10.37,2013-09-10 10:04:00,
2013-09-10 06:09:00,67.9,64.5,30.14,SW,216,2.3,3.5,89,0.02,OVC,,0.02,0.0,WeatherDisplay:10.37,2013-09-10 10:09:00,
2013-09-10 06:14:00,67.8,64.4,30.14,SSE,168,2.0,5.0,89,0.02,OVC,,0.02,0.0,WeatherDisplay:10.37,2013-09-10 10:14:00,
2013-09-10 06:19:00,67.7,64.7,30.14,SW,230,1.2,3.5,90,0.02,OVC,,0.02,0.0,WeatherDisplay:10.37,2013-09-10 10:19:00,
2013-09-10 06:24:00,67.7,64.7,30.14,South,182,1.1,3.5,90,0.02,OVC,,0.02,0.0,WeatherDisplay:10.37,2013-09-10 10:24:00,
2013-09-10 06:30:00,67.7,64.7,30.14,SSW,205,1.2,4.6,90,0.02,OVC,,0.02,0.0,WeatherDisplay:10.37,2013-09-10 10:30:00,
2013-09-10 06:35:00,67.7,65.0,30.14,SW,225,2.0,3.5,91,0.02,RA,,0.03,0.0,WeatherDisplay:10.37,2013-09-10 10:35:00,
2013-09-10 06:40:00,67.7,65.0,30.14,SSW,202,1.6,3.5,91,0.02,RA,,0.04,0.0,WeatherDisplay:10.37,2013-09-10 10:40:00,
2013-09-10 06:45:00,67.7,65.3,30.14,SSE,168,2.1,3.5,92,0.02,RA,,0.04,0.0,WeatherDisplay:10.37,2013-09-10 10:45:00,
2013-09-10 06:50:00,67.6,65.2,30.14,ESE,120,1.4,2.3,92,0.02,CLR,,0.04,0.0,WeatherDisplay:10.37,2013-09-10 10:50:00,
2013-09-10 06:55:00,67.6,65.2,30.14,WSW,238,2.3,4.0,92,0.02,OVC,,0.04,0.0,WeatherDisplay:10.37,2013-09-10 10:55:00,
2013-09-10 07:00:00,67.6,65.5,30.14,SW,227,2.0,3.5,93,0.02,OVC,,0.04,0.0,WeatherDisplay:10.37,2013-09-10 11:00:00,
2013-09-10 07:05:00,67.6,65.5,30.14,South,175,1.3,3.5,93,0.02,BKN,,0.04,9.0,WeatherDisplay:10.37,2013-09-10 11:05:00,
2013-09-10 07:10:00,67.6,65.5,30.14,SSW,197,2.2,3.5,93,0.02,BKN,,0.04,14.0,WeatherDisplay:10.37,2013-09-10 11:10:00,
2013-09-10 07:15:00,67.6,65.5,30.14,SSW,209,2.2,3.5,93,0.02,BKN,,0.04,23.0,WeatherDisplay:10.37,2013-09-10 11:15:00,
2013-09-10 07:21:00,67.7,65.6,30.14,SSW,205,2.3,2.3,93,0.02,BKN,,0.04,21.0,WeatherDisplay:10.37,2013-09-10 11:21:00,
2013-09-10 07:26:00,67.8,65.7,30.14,South,176,1.9,3.5,93,0.02,BKN,,0.04,16.0,WeatherDisplay:10.37,2013-09-10 11:26:00,
2013-09-10 07:31:00,67.8,65.7,30.14,SE,142,1.4,3.5,93,0.01,BKN,,0.04,16.0,WeatherDisplay:10.37,2013-09-10 11:31:00,
2013-09-10 07:36:00,67.9,65.8,30.14,SE,130,2.5,4.6,93,0.01,BKN,,0.04,28.0,WeatherDisplay:10.37,2013-09-10 11:36:00,
2013-09-10 07:41:00,68.0,65.9,30.14,SSW,202,1.7,3.5,93,0.00,BKN,,0.04,25.0,WeatherDisplay:10.37,2013-09-10 11:41:00,
2013-09-10 07:46:00,68.1,66.0,30.14,SSW,198,2.4,4.6,93,0.00,BKN,,0.04,21.0,WeatherDisplay:10.37,2013-09-10 11:46:00,
2013-09-10 07:51:00,68.2,66.1,30.14,SSW,202,2.3,3.5,93,0.00,BKN,,0.04,28.0,WeatherDisplay:10.37,2013-09-10 11:51:00,
2013-09-10 07:56:00,68.3,66.2,30.13,South,184,2.1,3.5,93,0.00,BKN,,0.04,44.0,WeatherDisplay:10.37,2013-09-10 11:56:00,
2013-09-10 08:01:00,68.5,66.4,30.13,WSW,241,3.0,7.0,93,0.00,BKN,,0.04,72.0,WeatherDisplay:10.37,2013-09-10 12:01:00,
2013-09-10 08:06:00,68.6,66.5,30.13,SSE,166,1.9,6.9,93,0.00,BKN,,0.04,72.0,WeatherDisplay:10.37,2013-09-10 12:06:00,
2013-09-10 08:12:00,68.8,66.7,30.13,SE,142,2.1,3.5,93,0.00,BKN,,0.04,62.0,WeatherDisplay:10.37,2013-09-10 12:12:00,
2013-09-10 08:17:00,68.9,66.8,30.13,SW,219,2.0,4.6,93,0.00,BKN,,0.04,63.0,WeatherDisplay:10.37,2013-09-10 12:17:00,
2013-09-10 08:22:00,69.1,66.7,30.13,SW,228,1.5,8.1,92,0.00,BKN,,0.04,86.0,WeatherDisplay:10.37,2013-09-10 12:22:00,
2013-09-10 08:27:00,69.3,66.9,30.13,South,187,2.8,6.9,92,0.00,BKN,,0.04,72.0,WeatherDisplay:10.37,2013-09-10 12:27:00,
2013-09-10 08:32:00,69.5,67.1,30.14,SW,226,1.2,3.5,92,0.00,BKN,,0.04,47.0,WeatherDisplay:10.37,2013-09-10 12:32:00,
2013-09-10 08:37:00,69.6,67.2,30.14,WSW,255,1.6,4.6,92,0.00,BKN,,0.04,67.0,WeatherDisplay:10.37,2013-09-10 12:37:00,
2013-09-10 08:42:00,69.8,67.4,30.14,SSW,207,2.2,4.6,92,0.00,BKN,,0.04,70.0,WeatherDisplay:10.37,2013-09-10 12:42:00,
2013-09-10 08:47:00,70.0,67.6,30.14,SSW,207,1.9,3.5,92,0.00,BKN,,0.04,74.0,WeatherDisplay:10.37,2013-09-10 12:47:00,
2013-09-10 08:52:00,70.1,67.7,30.14,South,178,3.4,3.5,92,0.00,BKN,,0.04,100.0,WeatherDisplay:10.37,2013-09-10 12:52:00,
2013-09-10 08:57:00,70.3,67.5,30.14,SSW,192,3.9,4.6,91,0.00,BKN,,0.04,98.0,WeatherDisplay:10.37,2013-09-10 12:57:00,
2013-09-10 09:03:00,70.5,67.7,30.14,SSE,159,2.2,9.2,91,0.00,BKN,,0.04,132.0,WeatherDisplay:10.37,2013-09-10 13:03:00,
2013-09-10 09:08:00,70.7,67.9,30.14,SSW,192,0.6,6.9,91,0.00,BKN,,0.04,109.0,WeatherDisplay:10.37,2013-09-10 13:08:00,
2013-09-10 09:13:00,70.9,68.1,30.14,SW,225,2.0,5.8,91,0.00,BKN,,0.04,162.0,WeatherDisplay:10.37,2013-09-10 13:13:00,
2013-09-10 09:18:00,71.2,68.4,30.14,South,171,2.8,4.6,91,0.00,BKN,,0.04,190.0,WeatherDisplay:10.37,2013-09-10 13:18:00,
2013-09-10 09:23:00,71.5,68.4,30.14,SSW,206,3.5,6.9,90,0.00,BKN,,0.04,204.0,WeatherDisplay:10.37,2013-09-10 13:23:00,
2013-09-10 09:28:00,71.8,68.7,30.15,South,177,3.4,5.0,90,0.00,BKN,,0.04,202.0,WeatherDisplay:10.37,2013-09-10 13:28:00,
2013-09-10 09:33:00,72.2,68.8,30.15,SW,223,2.4,5.8,89,0.00,BKN,,0.04,207.0,WeatherDisplay:10.37,2013-09-10 13:33:00,
2013-09-10 09:38:00,72.5,68.7,30.15,SSE,166,6.8,11.5,88,0.00,BKN,,0.04,162.0,WeatherDisplay:10.37,2013-09-10 13:38:00,
2013-09-10 09:43:00,72.8,69.0,30.15,WSW,242,4.5,6.9,88,0.00,BKN,,0.04,190.0,WeatherDisplay:10.37,2013-09-10 13:43:00,
2013-09-10 09:48:00,73.0,68.9,30.16,WSW,246,6.1,17.3,87,0.00,BKN,,0.04,165.0,WeatherDisplay:10.37,2013-09-10 13:48:00,
2013-09-10 09:54:00,73.3,69.2,30.16,SW,217,6.5,11.5,87,0.00,BKN,,0.04,204.0,WeatherDisplay:10.37,2013-09-10 13:54:00,
2013-09-10 09:59:00,73.5,69.4,30.15,SW,225,4.4,12.0,87,0.00,BKN,,0.04,190.0,WeatherDisplay:10.37,2013-09-10 13:59:00,
2013-09-10 10:04:00,73.7,69.6,30.15,SW,228,4.0,10.0,87,0.00,BKN,,0.04,288.0,WeatherDisplay:10.37,2013-09-10 14:04:00,
2013-09-10 10:09:00,74.0,69.5,30.15,SW,226,5.6,11.5,86,0.00,BKN,,0.04,330.0,WeatherDisplay:10.37,2013-09-10 14:09:00,
2013-09-10 10:14:00,74.3,69.5,30.14,SSE,167,2.2,3.5,85,0.00,BKN,,0.04,301.0,WeatherDisplay:10.37,2013-09-10 14:14:00,
2013-09-10 10:19:00,74.7,69.9,30.14,South,190,2.6,8.1,85,0.00,BKN,,0.04,290.0,WeatherDisplay:10.37,2013-09-10 14:19:00,
2013-09-10 10:24:00,75.0,70.2,30.14,South,172,1.9,3.5,85,0.00,BKN,,0.04,292.0,WeatherDisplay:10.37,2013-09-10 14:24:00,
2013-09-10 10:29:00,75.3,70.1,30.14,SW,224,3.6,5.8,84,0.00,BKN,,0.04,276.0,WeatherDisplay:10.37,2013-09-10 14:29:00,
2013-09-10 10:34:00,75.5,70.0,30.15,SW,222,3.5,8.1,83,0.00,BKN,,0.04,267.0,WeatherDisplay:10.37,2013-09-10 14:34:00,
2013-09-10 10:39:00,75.6,69.7,30.15,SE,126,4.0,9.2,82,0.00,BKN,,0.04,258.0,WeatherDisplay:10.37,2013-09-10 14:39:00,
2013-09-10 10:45:00,75.7,69.8,30.15,WSW,242,2.7,4.0,82,0.00,BKN,,0.04,183.0,WeatherDisplay:10.37,2013-09-10 14:45:00,
2013-09-10 10:50:00,75.8,69.9,30.15,WSW,240,3.6,11.5,82,0.00,BKN,,0.04,188.0,WeatherDisplay:10.37,2013-09-10 14:50:00,
2013-09-10 10:55:00,75.8,70.3,30.15,South,190,3.0,4.6,83,0.00,BKN,,0.04,172.0,WeatherDisplay:10.37,2013-09-10 14:55:00,
2013-09-10 11:00:00,75.8,69.9,30.15,South,184,4.3,8.1,82,0.00,BKN,,0.04,171.0,WeatherDisplay:10.37,2013-09-10 15:00:00,
2013-09-10 11:05:00,75.9,70.0,30.15,West,262,2.4,3.5,82,0.00,BKN,,0.04,163.0,WeatherDisplay:10.37,2013-09-10 15:05:00,
2013-09-10 11:10:00,75.9,70.0,30.15,SSW,202,2.4,4.0,82,0.00,BKN,,0.04,204.0,WeatherDisplay:10.37,2013-09-10 15:10:00,
2013-09-10 11:15:00,76.0,70.1,30.16,SW,219,3.5,4.6,82,0.00,BKN,,0.04,146.0,WeatherDisplay:10.37,2013-09-10 15:15:00,
2013-09-10 11:20:00,76.0,70.1,30.16,SSW,196,1.5,3.5,82,0.00,BKN,,0.04,160.0,WeatherDisplay:10.37,2013-09-10 15:20:00,
2013-09-10 11:25:00,76.1,70.6,30.16,WSW,246,4.6,6.9,83,0.00,BKN,,0.04,181.0,WeatherDisplay:10.37,2013-09-10 15:25:00,
2013-09-10 11:30:00,76.2,70.3,30.15,WSW,246,2.0,4.0,82,0.00,BKN,,0.04,260.0,WeatherDisplay:10.37,2013-09-10 15:30:00,
2013-09-10 11:36:00,76.4,70.5,30.14,South,180,3.0,6.9,82,0.00,BKN,,0.04,241.0,WeatherDisplay:10.37,2013-09-10 15:36:00,
2013-09-10 11:41:00,76.6,70.3,30.13,SSE,149,0.9,5.8,81,0.00,BKN,,0.04,278.0,WeatherDisplay:10.37,2013-09-10 15:41:00,
2013-09-10 11:46:00,76.8,70.5,30.14,North,5,0.6,2.3,81,0.00,BKN,,0.04,186.0,WeatherDisplay:10.37,2013-09-10 15:46:00,
2013-09-10 11:51:00,76.9,70.6,30.15,WSW,242,4.7,6.9,81,0.00,BKN,,0.04,113.0,WeatherDisplay:10.37,2013-09-10 15:51:00,
2013-09-10 11:56:00,77.0,70.4,30.14,SSW,209,4.1,5.8,80,0.00,BKN,,0.04,134.0,WeatherDisplay:10.37,2013-09-10 15:56:00,
2013-09-10 12:01:00,76.9,70.3,30.14,WSW,246,3.8,8.1,80,0.00,BKN,,0.04,223.0,WeatherDisplay:10.37,2013-09-10 16:01:00,
2013-09-10 12:06:00,77.0,70.7,30.13,WSW,238,1.1,3.0,81,0.00,BKN,,0.04,202.0,WeatherDisplay:10.37,2013-09-10 16:06:00,
2013-09-10 12:11:00,77.1,70.8,30.13,SW,218,2.7,5.0,81,0.00,BKN,,0.04,225.0,WeatherDisplay:10.37,2013-09-10 16:11:00,
2013-09-10 12:16:00,77.3,70.6,30.13,SE,144,1.8,3.0,80,0.00,BKN,,0.04,220.0,WeatherDisplay:10.37,2013-09-10 16:16:00,
2013-09-10 12:21:00,77.4,71.1,30.13,SW,229,0.0,2.3,81,0.00,BKN,,0.04,197.0,WeatherDisplay:10.37,2013-09-10 16:21:00,
2013-09-10 12:27:00,77.4,70.4,30.13,WSW,237,3.2,5.8,79,0.00,BKN,,0.04,134.0,WeatherDisplay:10.37,2013-09-10 16:27:00,
2013-09-10 12:32:00,77.5,70.5,30.12,SSE,149,0.6,6.9,79,0.00,BKN,,0.04,97.0,WeatherDisplay:10.37,2013-09-10 16:32:00,
2013-09-10 12:37:00,77.5,70.5,30.12,SE,131,1.1,3.5,79,0.00,BKN,,0.04,109.0,WeatherDisplay:10.37,2013-09-10 16:37:00,
2013-09-10 12:42:00,77.4,70.4,30.13,SE,131,0.5,2.0,79,0.00,BKN,,0.04,104.0,WeatherDisplay:10.37,2013-09-10 16:42:00,
2013-09-10 12:47:00,77.4,70.7,30.12,SE,133,0.2,1.0,80,0.00,BKN,,0.04,128.0,WeatherDisplay:10.37,2013-09-10 16:47:00,
2013-09-10 12:52:00,77.3,70.6,30.12,SE,133,2.6,4.6,80,0.00,BKN,,0.04,142.0,WeatherDisplay:10.37,2013-09-10 16:52:00,
2013-09-10 12:57:00,77.3,70.6,30.11,SSE,159,1.3,3.5,80,0.00,BKN,,0.04,192.0,WeatherDisplay:10.37,2013-09-10 16:57:00,
2013-09-10 13:02:00,77.4,70.7,30.10,SE,140,1.9,4.0,80,0.00,BKN,,0.04,290.0,WeatherDisplay:10.37,2013-09-10 17:02:00,
2013-09-10 13:07:00,77.5,70.8,30.10,SSW,210,0.7,3.5,80,0.00,BKN,,0.04,304.0,WeatherDisplay:10.37,2013-09-10 17:07:00,
2013-09-10 13:13:00,77.6,70.9,30.10,SE,145,1.7,5.8,80,0.00,BKN,,0.04,237.0,WeatherDisplay:10.37,2013-09-10 17:13:00,
2013-09-10 13:18:00,77.7,70.7,30.08,SSE,153,6.4,10.0,79,0.00,BKN,,0.04,265.0,WeatherDisplay:10.37,2013-09-10 17:18:00,
2013-09-10 13:23:00,77.8,71.5,30.07,SE,146,1.6,3.5,81,0.00,BKN,,0.04,308.0,WeatherDisplay:10.37,2013-09-10 17:23:00,
2013-09-10 13:28:00,78.0,71.0,30.06,SSE,157,6.9,11.5,79,0.00,BKN,,0.04,330.0,WeatherDisplay:10.37,2013-09-10 17:28:00,
2013-09-10 13:33:00,78.2,71.5,30.07,SW,235,3.5,6.9,80,0.00,BKN,,0.04,436.0,WeatherDisplay:10.37,2013-09-10 17:33:00,
2013-09-10 13:38:00,78.5,71.4,30.07,SSE,151,1.8,7.0,79,0.00,BKN,,0.04,411.0,WeatherDisplay:10.37,2013-09-10 17:38:00,
2013-09-10 13:43:00,78.8,71.7,30.07,ESE,119,2.0,5.0,79,0.00,BKN,,0.04,390.0,WeatherDisplay:10.37,2013-09-10 17:43:00,
2013-09-10 13:48:00,79.4,72.3,30.07,SSE,153,3.4,8.0,79,0.00,SCT,,0.04,698.0,WeatherDisplay:10.37,2013-09-10 17:48:00,
2013-09-10 13:53:00,79.9,72.0,30.07,SSW,204,2.0,8.1,77,0.00,FEW,,0.04,661.0,WeatherDisplay:10.37,2013-09-10 17:53:00,
2013-09-10 13:58:00,80.5,72.2,30.06,SSE,154,2.7,6.9,76,0.00,FEW,,0.04,515.0,WeatherDisplay:10.37,2013-09-10 17:58:00,
2013-09-10 14:04:00,80.9,72.2,30.06,SSW,206,5.3,13.8,75,0.00,SCT,,0.04,496.0,WeatherDisplay:10.37,2013-09-10 18:04:00,
2013-09-10 14:09:00,81.2,72.5,30.05,SW,235,6.7,14.0,75,0.00,SCT,,0.04,668.0,WeatherDisplay:10.37,2013-09-10 18:09:00,
2013-09-10 14:14:00,81.5,72.4,30.04,ESE,121,5.7,11.5,74,0.00,SCT,,0.04,330.0,WeatherDisplay:10.37,2013-09-10 18:14:00,
2013-09-10 14:19:00,81.6,71.7,30.04,SE,146,5.8,11.5,72,0.00,SCT,,0.04,691.0,WeatherDisplay:10.37,2013-09-10 18:19:00,
2013-09-10 14:24:00,81.7,72.2,30.05,SSE,158,2.3,4.6,73,0.00,FEW,,0.04,738.0,WeatherDisplay:10.37,2013-09-10 18:24:00,
2013-09-10 14:29:00,82.0,72.5,30.07,West,263,7.2,11.5,73,0.00,FEW,,0.04,622.0,WeatherDisplay:10.37,2013-09-10 18:29:00,
2013-09-10 14:34:00,82.3,72.4,30.07,SSW,193,5.0,12.7,72,0.00,FEW,,0.04,554.0,WeatherDisplay:10.37,2013-09-10 18:34:00,
2013-09-10 14:39:00,82.5,72.6,30.08,SE,140,4.0,8.1,72,0.00,FEW,,0.04,262.0,WeatherDisplay:10.37,2013-09-10 18:39:00,
2013-09-10 14:44:00,82.4,72.0,30.08,South,182,2.4,3.5,71,0.00,SCT,,0.04,265.0,WeatherDisplay:10.37,2013-09-10 18:44:00,
2013-09-10 14:49:00,82.5,72.6,30.09,SSE,149,2.5,4.6,72,0.00,BKN,,0.04,360.0,WeatherDisplay:10.37,2013-09-10 18:49:00,
2013-09-10 14:55:00,82.6,72.7,30.09,South,169,1.3,4.0,72,0.00,SCT,,0.04,698.0,WeatherDisplay:10.37,2013-09-10 18:55:00,
2013-09-10 15:00:00,82.8,72.8,30.08,SSE,154,2.1,4.0,72,0.00,CLR,,0.04,700.0,WeatherDisplay:10.37,2013-09-10 19:00:00,
2013-09-10 15:05:00,83.0,73.0,30.07,SE,146,2.3,6.9,72,0.00,CLR,,0.04,617.0,WeatherDisplay:10.37,2013-09-10 19:05:00,
2013-09-10 15:10:00,83.3,72.9,30.07,South,169,3.1,4.6,71,0.00,CLR,,0.04,687.0,WeatherDisplay:10.37,2013-09-10 19:10:00,
2013-09-10 15:15:00,83.8,73.0,30.07,SSW,209,5.7,11.0,70,0.00,CLR,,0.04,635.0,WeatherDisplay:10.37,2013-09-10 19:15:00,
2013-09-10 15:20:00,84.2,73.3,30.07,SSW,209,1.7,6.9,70,0.00,CLR,,0.04,566.0,WeatherDisplay:10.37,2013-09-10 19:20:00,
2013-09-10 15:25:00,84.4,72.7,30.07,South,181,2.7,3.5,68,0.00,CLR,,0.04,554.0,WeatherDisplay:10.37,2013-09-10 19:25:00,
2013-09-10 15:30:00,84.4,72.7,30.07,SSW,196,5.8,9.2,68,0.00,FEW,,0.04,499.0,WeatherDisplay:10.37,2013-09-10 19:30:00,
2013-09-10 15:35:00,84.3,73.0,30.07,SSW,199,5.2,7.0,69,0.00,FEW,,0.04,490.0,WeatherDisplay:10.37,2013-09-10 19:35:00,
2013-09-10 15:40:00,84.2,72.0,30.07,SE,146,3.2,11.5,67,0.00,FEW,,0.04,494.0,WeatherDisplay:10.37,2013-09-10 19:40:00,
2013-09-10 15:46:00,84.1,72.4,30.07,SSW,200,3.1,5.8,68,0.00,FEW,,0.04,557.0,WeatherDisplay:10.37,2013-09-10 19:46:00,
2013-09-10 15:51:00,83.8,72.1,30.06,SE,138,3.3,6.9,68,0.00,CLR,,0.04,541.0,WeatherDisplay:10.37,2013-09-10 19:51:00,
2013-09-10 15:56:00,83.6,72.3,30.06,WSW,245,3.5,10.4,69,0.00,CLR,,0.04,522.0,WeatherDisplay:10.37,2013-09-10 19:56:00,
2013-09-10 16:01:00,83.5,72.3,30.06,SSE,158,3.1,10.4,69,0.00,CLR,,0.04,478.0,WeatherDisplay:10.37,2013-09-10 20:01:00,
2013-09-10 16:06:00,83.5,72.7,30.06,SSW,204,1.7,3.5,70,0.00,CLR,,0.04,448.0,WeatherDisplay:10.37,2013-09-10 20:06:00,
2013-09-10 16:11:00,83.5,72.7,30.06,SW,214,2.8,6.9,70,0.00,FEW,,0.04,299.0,WeatherDisplay:10.37,2013-09-10 20:11:00,
2013-09-10 16:16:00,83.4,72.6,30.06,WSW,241,4.9,8.1,70,0.00,SCT,,0.04,183.0,WeatherDisplay:10.37,2013-09-10 20:16:00,
2013-09-10 16:21:00,83.2,72.8,30.06,WSW,250,1.8,6.0,71,0.00,BKN,,0.04,383.0,WeatherDisplay:10.37,2013-09-10 20:21:00,
2013-09-10 16:26:00,83.1,72.3,30.06,SE,143,1.8,4.6,70,0.00,SCT,,0.04,413.0,WeatherDisplay:10.37,2013-09-10 20:26:00,
2013-09-10 16:31:00,83.0,72.2,30.06,SSE,157,2.5,4.6,70,0.00,CLR,,0.04,364.0,WeatherDisplay:10.37,2013-09-10 20:31:00,
2013-09-10 16:37:00,82.9,72.1,30.06,WSW,245,4.9,6.9,70,0.00,CLR,,0.04,338.0,WeatherDisplay:10.37,2013-09-10 20:37:00,
2013-09-10 16:42:00,82.8,72.4,30.06,South,169,3.0,6.9,71,0.00,FEW,,0.04,332.0,WeatherDisplay:10.37,2013-09-10 20:42:00,
2013-09-10 16:47:00,82.7,72.7,30.06,SSE,153,2.0,7.0,72,0.00,FEW,,0.04,297.0,WeatherDisplay:10.37,2013-09-10 20:47:00,
2013-09-10 16:52:00,82.7,72.3,30.06,SE,143,2.5,6.9,71,0.00,SCT,,0.04,250.0,WeatherDisplay:10.37,2013-09-10 20:52:00,
2013-09-10 16:57:00,82.6,72.2,30.05,SE,140,1.8,4.6,71,0.00,SCT,,0.04,239.0,WeatherDisplay:10.37,2013-09-10 20:57:00,
2013-09-10 17:02:00,82.5,72.6,30.05,South,184,3.3,6.9,72,0.00,SCT,,0.04,267.0,WeatherDisplay:10.37,2013-09-10 21:02:00,
2013-09-10 17:07:00,82.5,72.6,30.05,WSW,243,3.3,10.4,72,0.00,SCT,,0.04,295.0,WeatherDisplay:10.37,2013-09-10 21:07:00,
2013-09-10 17:12:00,82.4,72.5,30.05,SSW,197,3.4,8.1,72,0.00,FEW,,0.04,274.0,WeatherDisplay:10.37,2013-09-10 21:12:00,
2013-09-10 17:17:00,82.4,72.9,30.05,SSW,211,3.3,6.9,73,0.00,CLR,,0.04,195.0,WeatherDisplay:10.37,2013-09-10 21:17:00,
2013-09-10 17:22:00,82.4,72.9,30.05,SE,126,2.2,3.0,73,0.00,SCT,,0.04,107.0,WeatherDisplay:10.37,2013-09-10 21:22:00,
2013-09-10 17:28:00,82.3,72.4,30.05,South,174,3.3,6.9,72,0.00,BKN,,0.04,84.0,WeatherDisplay:10.37,2013-09-10 21:28:00,
2013-09-10 17:33:00,82.2,72.7,30.05,SE,134,2.2,5.8,73,0.00,BKN,,0.04,83.0,WeatherDisplay:10.37,2013-09-10 21:33:00,
2013-09-10 17:38:00,82.0,72.5,30.05,SSE,151,1.1,3.5,73,0.00,BKN,,0.04,79.0,WeatherDisplay:10.37,2013-09-10 21:38:00,
2013-09-10 17:43:00,81.9,72.4,30.05,SSE,156,1.7,4.6,73,0.00,BKN,,0.04,74.0,WeatherDisplay:10.37,2013-09-10 21:43:00,
2013-09-10 17:48:00,81.7,72.6,30.05,South,186,3.0,8.1,74,0.00,BKN,,0.04,70.0,WeatherDisplay:10.37,2013-09-10 21:48:00,
2013-09-10 17:53:00,81.5,72.4,30.05,SSE,157,2.6,3.5,74,0.00,BKN,,0.04,63.0,WeatherDisplay:10.37,2013-09-10 21:53:00,
2013-09-10 17:58:00,81.4,72.7,30.05,SSE,157,2.2,3.5,75,0.00,BKN,,0.04,58.0,WeatherDisplay:10.37,2013-09-10 21:58:00,
2013-09-10 18:03:00,81.2,72.5,30.05,SW,233,2.4,4.0,75,0.00,BKN,,0.04,53.0,WeatherDisplay:10.37,2013-09-10 22:03:00,
2013-09-10 18:08:00,81.0,72.3,30.05,SSW,211,3.4,4.6,75,0.00,BKN,,0.04,49.0,WeatherDisplay:10.37,2013-09-10 22:08:00,
2013-09-10 18:13:00,80.9,72.6,30.05,SSE,150,2.0,4.6,76,0.00,BKN,,0.04,42.0,WeatherDisplay:10.37,2013-09-10 22:13:00,
2013-09-10 18:19:00,80.7,72.4,30.05,South,178,1.0,4.6,76,0.00,BKN,,0.04,39.0,WeatherDisplay:10.37,2013-09-10 22:19:00,
2013-09-10 18:24:00,80.6,72.3,30.05,SSE,158,2.8,3.5,76,0.00,BKN,,0.04,33.0,WeatherDisplay:10.37,2013-09-10 22:24:00,
2013-09-10 18:29:00,80.4,72.5,30.05,SSW,194,2.4,4.6,77,0.00,BKN,,0.04,30.0,WeatherDisplay:10.37,2013-09-10 22:29:00,
2013-09-10 18:34:00,80.2,72.3,30.05,WSW,246,3.3,9.0,77,0.00,BKN,,0.04,25.0,WeatherDisplay:10.37,2013-09-10 22:34:00,
2013-09-10 18:39:00,80.0,72.1,30.05,SSE,163,1.8,5.0,77,0.00,BKN,,0.04,21.0,WeatherDisplay:10.37,2013-09-10 22:39:00,
2013-09-10 18:44:00,79.7,72.2,30.06,South,178,1.8,3.5,78,0.00,BKN,,0.04,18.0,WeatherDisplay:10.37,2013-09-10 22:44:00,
2013-09-10 18:49:00,79.5,72.0,30.06,South,185,1.8,4.6,78,0.00,BKN,,0.04,14.0,WeatherDisplay:10.37,2013-09-10 22:49:00,
2013-09-10 18:54:00,79.2,72.1,30.06,SSE,165,1.4,6.9,79,0.00,BKN,,0.04,9.0,WeatherDisplay:10.37,2013-09-10 22:54:00,
2013-09-10 18:59:00,79.0,71.9,30.06,SSE,155,1.6,6.9,79,0.00,BKN,,0.04,7.0,WeatherDisplay:10.37,2013-09-10 22:59:00,
2013-09-10 19:04:00,78.8,72.1,30.06,SE,136,3.7,5.8,80,0.00,BKN,,0.04,5.0,WeatherDisplay:10.37,2013-09-10 23:04:00,
2013-09-10 19:10:00,78.5,71.8,30.06,South,179,2.2,3.5,80,0.00,OVC,,0.04,0.0,WeatherDisplay:10.37,2013-09-10 23:10:00,
2013-09-10 19:15:00,78.2,71.9,30.06,SSE,161,1.8,3.5,81,0.00,OVC,,0.04,0.0,WeatherDisplay:10.37,2013-09-10 23:15:00,
2013-09-10 19:20:00,78.0,71.7,30.06,South,173,2.8,4.6,81,0.00,OVC,,0.04,0.0,WeatherDisplay:10.37,2013-09-10 23:20:00,
2013-09-10 19:25:00,77.7,71.8,30.07,SE,141,2.0,9.2,82,0.00,OVC,,0.04,0.0,WeatherDisplay:10.37,2013-09-10 23:25:00,
2013-09-10 19:30:00,77.5,71.6,30.07,SE,141,3.0,7.0,82,0.00,OVC,,0.04,0.0,WeatherDisplay:10.37,2013-09-10 23:30:00,
2013-09-10 19:35:00,77.3,71.4,30.07,SE,134,2.3,4.6,82,0.00,OVC,,0.04,0.0,WeatherDisplay:10.37,2013-09-10 23:35:00,
2013-09-10 19:40:00,77.1,71.5,30.07,SSE,160,1.9,3.5,83,0.00,OVC,,0.04,0.0,WeatherDisplay:10.37,2013-09-10 23:40:00,
2013-09-10 19:45:00,76.9,71.3,30.07,SSE,153,1.5,4.6,83,0.00,CLR,,0.04,0.0,WeatherDisplay:10.37,2013-09-10 23:45:00,
2013-09-10 19:50:00,76.6,71.4,30.07,SSE,149,1.6,4.0,84,0.00,CLR,,0.04,0.0,WeatherDisplay:10.37,2013-09-10 23:50:00,
2013-09-10 19:55:00,76.5,71.3,30.07,South,186,2.1,3.0,84,0.00,CLR,,0.04,0.0,WeatherDisplay:10.37,2013-09-10 23:55:00,
2013-09-10 20:01:00,76.2,71.4,30.07,West,260,3.4,3.5,85,0.00,CLR,,0.04,0.0,WeatherDisplay:10.37,2013-09-11 00:01:00,
2013-09-10 20:06:00,76.1,71.3,30.07,SSE,147,2.2,3.5,85,0.00,CLR,,0.04,0.0,WeatherDisplay:10.37,2013-09-11 00:06:00,
2013-09-10 20:11:00,76.0,71.2,30.07,South,174,0.8,3.5,85,0.00,CLR,,0.04,0.0,WeatherDisplay:10.37,2013-09-11 00:11:00,
2013-09-10 20:16:00,75.9,71.1,30.07,SSW,196,1.1,3.0,85,0.00,CLR,,0.04,0.0,WeatherDisplay:10.37,2013-09-11 00:16:00,
2013-09-10 20:21:00,75.7,71.2,30.07,SSW,198,2.3,6.9,86,0.00,CLR,,0.04,0.0,WeatherDisplay:10.37,2013-09-11 00:21:00,
2013-09-10 20:26:00,75.7,71.2,30.07,South,180,1.4,3.5,86,0.00,CLR,,0.04,0.0,WeatherDisplay:10.37,2013-09-11 00:26:00,
2013-09-10 20:31:00,75.6,71.1,30.07,West,261,2.0,3.5,86,0.00,CLR,,0.04,0.0,WeatherDisplay:10.37,2013-09-11 00:31:00,
2013-09-10 20:36:00,75.5,71.4,30.07,South,181,1.5,3.5,87,0.00,CLR,,0.04,0.0,WeatherDisplay:10.37,2013-09-11 00:36:00,
2013-09-10 20:41:00,75.5,71.4,30.07,SSW,211,2.0,3.5,87,0.00,CLR,,0.04,0.0,WeatherDisplay:10.37,2013-09-11 00:41:00,
2013-09-10 20:46:00,75.4,71.3,30.08,SSE,162,0.7,2.3,87,0.00,CLR,,0.04,0.0,WeatherDisplay:10.37,2013-09-11 00:46:00,
2013-09-10 20:52:00,75.4,71.3,30.08,SSE,152,2.3,3.5,87,0.00,CLR,,0.04,0.0,WeatherDisplay:10.37,2013-09-11 00:52:00,
2013-09-10 20:57:00,75.4,71.3,30.08,SSW,207,2.3,4.6,87,0.00,CLR,,0.04,0.0,WeatherDisplay:10.37,2013-09-11 00:57:00,
2013-09-10 21:02:00,75.3,71.2,30.08,SSW,192,1.8,3.5,87,0.00,CLR,,0.04,0.0,WeatherDisplay:10.37,2013-09-11 01:02:00,
2013-09-10 21:07:00,75.3,71.2,30.08,SSE,157,0.7,2.3,87,0.00,CLR,,0.04,0.0,WeatherDisplay:10.37,2013-09-11 01:07:00,
2013-09-10 21:12:00,75.3,71.2,30.07,SSE,150,1.9,3.5,87,0.00,CLR,,0.04,0.0,WeatherDisplay:10.37,2013-09-11 01:12:00,
2013-09-10 21:17:00,75.2,71.4,30.08,SSE,162,1.4,3.5,88,0.00,CLR,,0.04,0.0,WeatherDisplay:10.37,2013-09-11 01:17:00,
2013-09-10 21:22:00,75.2,71.4,30.08,South,175,1.9,4.6,88,0.00,CLR,,0.04,0.0,WeatherDisplay:10.37,2013-09-11 01:22:00,
2013-09-10 21:27:00,75.2,71.4,30.08,SE,143,0.9,2.3,88,0.00,CLR,,0.04,0.0,WeatherDisplay:10.37,2013-09-11 01:27:00,
2013-09-10 21:32:00,75.2,71.4,30.08,SW,224,1.3,2.3,88,0.00,CLR,,0.04,0.0,WeatherDisplay:10.37,2013-09-11 01:32:00,
2013-09-10 21:37:00,75.1,71.3,30.08,South,170,0.7,2.3,88,0.00,CLR,,0.04,0.0,WeatherDisplay:10.37,2013-09-11 01:37:00,
2013-09-10 21:43:00,75.1,71.3,30.08,SSE,154,1.2,2.3,88,0.00,CLR,,0.04,0.0,WeatherDisplay:10.37,2013-09-11 01:43:00,
2013-09-10 21:48:00,75.0,71.5,30.08,SSW,200,1.4,3.5,89,0.00,CLR,,0.04,0.0,WeatherDisplay:10.37,2013-09-11 01:48:00,
2013-09-10 21:53:00,75.0,71.5,30.08,WSW,247,0.9,3.0,89,0.00,CLR,,0.04,0.0,WeatherDisplay:10.37,2013-09-11 01:53:00,
2013-09-10 21:58:00,75.0,71.5,30.08,South,184,2.1,4.6,89,0.00,CLR,,0.04,0.0,WeatherDisplay:10.37,2013-09-11 01:58:00,
2013-09-10 22:03:00,75.0,71.5,30.08,South,173,1.8,3.5,89,0.00,CLR,,0.04,0.0,WeatherDisplay:10.37,2013-09-11 02:03:00,
2013-09-10 22:08:00,75.0,71.5,30.08,SW,220,0.7,2.3,89,0.00,CLR,,0.04,0.0,WeatherDisplay:10.37,2013-09-11 02:08:00,
2013-09-10 22:13:00,75.0,71.5,30.08,SSW,201,1.9,3.5,89,0.00,CLR,,0.04,0.0,WeatherDisplay:10.37,2013-09-11 02:13:00,
2013-09-10 22:18:00,75.0,71.5,30.08,SW,229,1.6,2.3,89,0.00,CLR,,0.04,0.0,WeatherDisplay:10.37,2013-09-11 02:18:00,
2013-09-10 22:23:00,75.0,71.5,30.08,SSE,168,2.1,3.5,89,0.00,CLR,,0.04,0.0,WeatherDisplay:10.37,2013-09-11 02:23:00,
2013-09-10 22:28:00,75.0,71.5,30.08,SSW,209,0.6,1.2,89,0.00,CLR,,0.04,0.0,WeatherDisplay:10.37,2013-09-11 02:28:00,
2013-09-10 22:34:00,75.0,71.5,30.08,SW,232,1.7,3.5,89,0.00,CLR,,0.04,0.0,WeatherDisplay:10.37,2013-09-11 02:34:00,
2013-09-10 22:39:00,75.0,71.5,30.08,SW,233,1.5,8.1,89,0.00,CLR,,0.04,0.0,WeatherDisplay:10.37,2013-09-11 02:39:00,
2013-09-10 22:44:00,75.0,71.5,30.08,SSW,198,1.2,4.6,89,0.00,CLR,,0.04,0.0,WeatherDisplay:10.37,2013-09-11 02:44:00,
2013-09-10 22:49:00,75.0,71.9,30.08,SSW,213,2.3,3.5,90,0.00,CLR,,0.04,0.0,WeatherDisplay:10.37,2013-09-11 02:49:00,
2013-09-10 22:54:00,75.0,71.9,30.08,SSW,192,2.9,9.2,90,0.00,CLR,,0.04,0.0,WeatherDisplay:10.37,2013-09-11 02:54:00,
2013-09-10 22:59:00,75.0,71.9,30.09,West,271,1.7,4.6,90,0.00,CLR,,0.04,0.0,WeatherDisplay:10.37,2013-09-11 02:59:00,
2013-09-10 23:04:00,75.1,72.0,30.09,SSW,206,3.1,3.5,90,0.00,CLR,,0.04,0.0,WeatherDisplay:10.37,2013-09-11 03:04:00,
2013-09-10 23:09:00,75.2,72.1,30.09,West,273,2.0,4.6,90,0.00,CLR,,0.04,0.0,WeatherDisplay:10.37,2013-09-11 03:09:00,
2013-09-10 23:14:00,75.2,71.7,30.09,SW,230,2.1,4.6,89,0.00,CLR,,0.04,0.0,WeatherDisplay:10.37,2013-09-11 03:14:00,
2013-09-10 23:19:00,75.3,71.8,30.09,SSW,211,2.8,6.9,89,0.00,CLR,,0.04,0.0,WeatherDisplay:10.37,2013-09-11 03:19:00,
2013-09-10 23:25:00,75.4,71.9,30.08,SSE,160,2.9,6.9,89,0.00,CLR,,0.04,0.0,WeatherDisplay:10.37,2013-09-11 03:25:00,
2013-09-10 23:30:00,75.4,71.9,30.09,SW,225,2.8,4.0,89,0.00,CLR,,0.04,0.0,WeatherDisplay:10.37,2013-09-11 03:30:00,
2013-09-10 23:35:00,75.5,72.0,30.09,South,169,2.1,4.0,89,0.00,CLR,,0.04,0.0,WeatherDisplay:10.37,2013-09-11 03:35:00,
2013-09-10 23:40:00,75.5,72.0,30.09,SSE,148,2.1,4.6,89,0.00,CLR,,0.04,0.0,WeatherDisplay:10.37,2013-09-11 03:40:00,
2013-09-10 23:45:00,75.5,72.0,30.09,SSW,204,1.9,3.5,89,0.00,CLR,,0.04,0.0,WeatherDisplay:10.37,2013-09-11 03:45:00,
2013-09-10 23:50:00,75.5,72.0,30.09,SSW,198,3.4,5.0,89,0.00,CLR,,0.04,0.0,WeatherDisplay:10.37,2013-09-11 03:50:00,
2013-09-10 23:55:00,75.6,72.1,30.09,WSW,238,2.6,9.2,89,0.00,CLR,,0.04,0.0,WeatherDisplay:10.37,2013-09-11 03:55:00,